Regional Weather Roundup
Issued by NWS

Home | Current Version | Previous Version | Graphics & Text | Print | Product List | Glossary On
Versions: 1 2 3 4 5 6 7 8 9 10 11 12 13 14 15 16 17 18 19 20 21 22 23 24 25 26 27 28 29 30 31 32 33 34 35 36 37 38 39 40 41 42 43 44 45 46 47 48 49 50
000
ASUS43 KLSX 231559
RWRMO

WEATHER SUMMARY FOR MISSOURI
NATIONAL WEATHER SERVICE SPRINGFIELD MO
1100 AM CDT TUE SEP 23 2014

NOTE: "FAIR" INDICATES FEW OR NO CLOUDS BELOW 12,000 FEET WITH NO
       SIGNIFICANT WEATHER AND/OR OBSTRUCTIONS TO VISIBILITY.
       CURRENT SKY AND/OR WEATHER CONDITIONS ARE NOT AVAILABLE FOR
       CHILLICOTHE AND FARMINGTON.

MOZ001>031-035>038-043-044-053-054-231700-
...NORTHERN AND WESTERN MISSOURI...

CITY           SKY/WX    TMP DP  RH WIND       PRES   REMARKS
KANSAS CTY INT CLOUDY    70  56  61 S14       30.24F
KANSAS C DTWN  CLOUDY    69  53  56 S10       30.24F
LEE`S SUMMIT   MOSUNNY   68  55  63 S10       30.26F
ST JOSEPH      CLOUDY    68  54  60 S14       30.23S
KIRKSVILLE     MOSUNNY   66  51  58 S12       30.32S

$$
MOZ066>068-077>081-088>096-101>105-231700-
...SOUTHWEST MISSOURI...

CITY           SKY/WX    TMP DP  RH WIND       PRES   REMARKS
SPRINGFIELD    MOSUNNY   65  48  54 S12       30.30S
JOPLIN         SUNNY     69  54  58 S9        30.28S

$$
MOZ032>034-039>042-045>050-055>058-069>072-231700-
...CENTRAL MISSOURI...

CITY           SKY/WX    TMP DP  RH WIND       PRES   REMARKS
COLUMBIA       SUNNY     66  51  58 S9        30.33S
JEFFERSON CITY SUNNY     65  51  60 VRB3      30.33S
ROLLA          SUNNY     65  47  52 S6        30.32R
SEDALIA        MOSUNNY   69  51  52 S10       30.31S
OSAGE BEACH    SUNNY     66  50  55 S9        30.32S

$$
MOZ051-052-059>065-231700-
...EAST CENTRAL MISSOURI...

CITY           SKY/WX    TMP DP  RH WIND       PRES   REMARKS
ST LOUIS INTL  MOSUNNY   69  48  47 S6        30.34S
SPIRIT OF STL  MOSUNNY   67  51  56 CALM      30.33S
ST CHARLES     MOSUNNY   68  48  48 SE6       30.33S

$$
MOZ072>076-082>087-097>100-106>115-231700-
...SOUTH CENTRAL AND SOUTHEAST MISSOURI...

CITY           SKY/WX    TMP DP  RH WIND       PRES   REMARKS
CAPE GIRARDEAU SUNNY     67  51  56 CALM      30.32R
FARMINGTON     SUNNY     66  48  52 E10       30.34S
POPLAR BLUFF   SUNNY     67  48  50 VRB6      30.31R
WEST PLAINS    SUNNY     65  46  50 VRB6      30.33S

$$


USA.gov is the U.S. government's official web portal to all federal, state and local government web resources and services.